Springfield, VT

2:30 AM EST on November 24, 2017 (GMT -0500)
Hartness State

Weather History for KVSF - November, 2013

Change the Weather History Date:

Saturday, November 16, 2013

  Actual Average Record
Temperature  
Mean Temperature 43 °F 37 °F  
Max Temperature 58 °F 46 °F 66 °F (2006)
Min Temperature 27 °F 29 °F 7 °F (1996)
Degree Days  
Heating Degree Days 22 28  
Month to date heating degree days 423 403  
Since 1 July heating degree days 1198 1212  
Cooling Degree Days 0 0  
Month to date cooling degree days 0  
Year to date cooling degree days 345  
Moisture  
Dew Point 26 °F    
Average Humidity 61    
Maximum Humidity 92    
Minimum Humidity 30    
Precipitation  
Precipitation 0.00 in 0.14 in 1.00 in (2006)
Month to date precipitation 0.90 2.12  
Year to date precipitation 33.34 38.67  
Sea Level Pressure  
Sea Level Pressure 30.29 in    
Wind  
Wind Speed 2 mph (NNW)    
Max Wind Speed 8 mph    
Max Gust Speed 9 mph    
Visibility 10 miles    
Events      
T = Trace of Precipitation, MM = Missing Value Source: NWS Daily Summary

Daily Weather History Graph

Daily Weather History Graph

Search for Another Location

Airport or City:

Trip Planner

Search our weather history database for the weather conditions in past years. The results will help you decide how hot, cold, wet, or windy it might be!

Date:

Astronomy

Nov. 16, 2013 Rise Set
Actual Time 6:44 AM EST 4:24 PM EST
Civil Twilight 6:14 AM EST 4:55 PM EST
Nautical Twilight 5:39 AM EST 5:29 PM EST
Astronomical Twilight 5:05 AM EST 6:03 PM EST
Moon 3:58 PM EST (11/16) 5:36 AM EST (11/16)
Length of Visible Light 10h 41m
Length of Day
9h 39m
Waxing Gibbous, 99% of the Moon is Illuminated
Nov 16
Waxing Gibbous
Nov 17
Full
Nov 25
Last Quarter
Dec 2
New
Dec 9
First Quarter

Hourly Weather History & Observations

Time (EST) Temp. Windchill Dew Point Humidity Pressure Visibility Wind Dir Wind Speed Gust Speed Precip Events Conditions
12:54 AM 28.0 °F 24.2 °F 23.0 °F 81% 30.21 in 10.0 mi WNW 3.5 mph - N/A   Clear
1:54 AM 28.9 °F - 24.1 °F 82% 30.22 in 10.0 mi Calm Calm - N/A   Clear
2:54 AM 28.9 °F - 24.1 °F 82% 30.24 in 10.0 mi Calm Calm - N/A   Clear
3:54 AM 30.0 °F - 25.0 °F 82% 30.25 in 10.0 mi Calm Calm - N/A   Mostly Cloudy
4:54 AM 30.9 °F 27.5 °F 24.1 °F 76% 30.27 in 10.0 mi NNE 3.5 mph - N/A   Overcast
5:54 AM 30.9 °F 27.5 °F 24.1 °F 76% 30.27 in 10.0 mi North 3.5 mph - N/A   Overcast
6:54 AM 30.0 °F 26.5 °F 25.0 °F 82% 30.29 in 10.0 mi ENE 3.5 mph - N/A   Overcast
7:54 AM 30.9 °F - 26.1 °F 82% 30.31 in 10.0 mi Calm Calm - N/A   Overcast
8:54 AM 34.0 °F - 27.0 °F 75% 30.32 in 10.0 mi Calm Calm - N/A   Clear
9:54 AM 41.0 °F - 26.1 °F 55% 30.32 in 10.0 mi Calm Calm - N/A   Partly Cloudy
10:54 AM 48.0 °F - 24.1 °F 39% 30.31 in 10.0 mi Calm Calm - N/A   Clear
11:54 AM 54.0 °F - 27.0 °F 35% 30.29 in 10.0 mi Calm Calm - N/A   Clear
12:54 PM 57.0 °F - 27.0 °F 32% 30.26 in 10.0 mi Variable 3.5 mph - N/A   Clear
1:54 PM 57.9 °F - 27.0 °F 31% 30.25 in 10.0 mi SSE 4.6 mph - N/A   Clear
2:54 PM 57.0 °F - 27.0 °F 32% 30.27 in 10.0 mi South 3.5 mph - N/A   Clear
3:54 PM 54.0 °F - 27.0 °F 35% 30.27 in 10.0 mi SSE 4.6 mph - N/A   Clear
4:54 PM 42.1 °F 40.2 °F 30.9 °F 65% 30.29 in 10.0 mi NW 3.5 mph - N/A   Clear
5:54 PM 37.9 °F 35.5 °F 30.0 °F 73% 30.30 in 10.0 mi WNW 3.5 mph - N/A   Clear
6:54 PM 36.0 °F - 28.9 °F 76% 30.31 in 10.0 mi Calm Calm - N/A   Clear
7:54 PM 33.1 °F - 28.0 °F 82% 30.32 in 10.0 mi Calm Calm - N/A   Clear
8:54 PM 32.0 °F - 27.0 °F 82% 30.33 in 10.0 mi Calm Calm - N/A   Clear
9:54 PM 30.0 °F - 27.0 °F 88% 30.32 in 10.0 mi Calm Calm - N/A   Clear
10:54 PM 28.9 °F - 26.1 °F 89% 30.32 in 10.0 mi Calm Calm - N/A   Clear
11:54 PM 28.0 °F - 25.0 °F 88% 30.32 in 9.0 mi Calm Calm - N/A   Clear